Regional Weather Roundup
Issued by NWS

Home | Current Version | Previous Version | Graphics & Text | Print | Product List | Glossary On
Versions: 1 2 3 4 5 6 7 8 9 10 11 12 13 14 15 16 17 18 19 20 21 22 23 24 25 26 27 28 29 30 31 32 33 34 35 36 37 38 39 40 41 42 43 44 45 46 47 48 49 50
002
ASUS43 KIND 061859
RWRIN

WEATHER ROUNDUP FOR INDIANA
NATIONAL WEATHER SERVICE INDIANAPOLIS IN
300 PM EDT FRI MAY 06 2016

NOTE: "FAIR" INDICATES FEW OR NO CLOUDS BELOW 12,000 FEET WITH NO
SIGNIFICANT WEATHER AND/OR OBSTRUCTIONS TO VISIBILITY.

* - STATION DOES NOT REPORT WEATHER SUCH AS PRECIPITATION OR FOG.

+ - STATION NOT QUALITY CONTROLLED BY THE NATIONAL WEATHER SERVICE.
    USE DATA WITH CAUTION...ESPECIALLY DEWPOINT AND RELATIVE
    HUMIDITY OBSERVATIONS.

INZ001>003-010>013-019-020-062000-
NORTHWEST INDIANA

CITY           SKY/WX    TMP DP  RH WIND       PRES   REMARKS
GARY /AIRPORT/ MOSUNNY   75  48  38 S12       29.91F
RENSSELAER +   MOSUNNY   73  32  21 SW9       29.94F

$$

LMZ046-743>745-062000-
SOUTHERN LAKE MICHIGAN

STATION/POSITION TIME  TEMP    WIND        PRES    WAVE
                       AIR SEA DIR/SP/G            HT
                 (UTC) (F)     (DEG/KT/KT) (MB)    (FT)
BURNS HARBOR     1800   67      70/  3/  4 1014.2F
MICHIGAN CITY    1800   67      CALM  /  1   N/A

$$

INZ004-005-014>016-021>024-062000-
NORTH CENTRAL INDIANA

CITY           SKY/WX    TMP DP  RH WIND       PRES   REMARKS
GOSHEN         SUNNY     68  47  46 W9        29.94F
SOUTH BEND     SUNNY     70  37  29 NW5       29.94F

$$

INZ006>009-017-018-025>027-062000-
NORTHEAST INDIANA

CITY           SKY/WX    TMP DP  RH WIND       PRES   REMARKS
ANGOLA *+        N/A     70  36  28 VRB3      29.93F
FORT WAYNE     MOSUNNY   69  38  32 W7        29.95F

$$

INZ028-029-035-036-043>045-051>053-062000-
WEST CENTRAL INDIANA

CITY           SKY/WX    TMP DP  RH WIND       PRES   REMARKS
CRAWFORDSVL +  SUNNY     68  44  41 W5        29.98F
GREENCASTLE +  SUNNY     68  45  42 W5        29.99F
LAFAYETTE      MOSUNNY   70  39  32 CALM      29.96F
TERRE HAUTE    SUNNY     72  40  31 W7G16     29.98F

$$

INZ030>032-037>040-046>048-054>057-064-065-062000-
CENTRAL INDIANA

CITY           SKY/WX    TMP DP  RH WIND       PRES   REMARKS
ANDERSON       SUNNY     66  41  39 NW8       29.98F
COLUMBUS       SUNNY     66  43  42 N9        29.97F
INDIANAPOLIS   MOSUNNY   69  40  34 NW14      29.97F
-EAGLE CREEK   SUNNY     68  42  38 NW8       29.97F
KOKOMO *+      SUNNY     70  43  37 NW7       29.95F
SHELBYVILLE    SUNNY     70  41  34 N12       29.96F

$$

INZ033-034-041-042-049-050-058-059-062000-
EAST CENTRAL INDIANA

CITY           SKY/WX    TMP DP  RH WIND       PRES   REMARKS
MUNCIE         SUNNY     68  40  35 W9G18     29.96F

$$

INZ060-061-067>069-081>083-085>088-062000-
SOUTHWEST INDIANA

CITY           SKY/WX    TMP DP  RH WIND       PRES   REMARKS
EVANSVILLE     SUNNY     69  44  40 NE12G18   30.02F
HUNTINGBURG *+ SUNNY     70  46  43 NW7       30.01F

$$

INZ062-063-066-070>080-084-089>092-062000-
SOUTH CENTRAL AND SOUTHEAST INDIANA

CITY           SKY/WX    TMP DP  RH WIND       PRES   REMARKS
BLOOMINGTON    SUNNY     70  40  33 NE10      29.98F
MADISON *+     SUNNY     68  34  28 N5        29.98F
SEYMOUR +      SUNNY     70  43  37 NW5       29.97F

$$





USA.gov is the U.S. government's official web portal to all federal, state and local government web resources and services.